This demonstration page uses our WeatherBlox Daily Observations layout. Learn more.

Left ArrowRight Arrow

Hourly Observations for November 7, 2015

Temp ( °F °C ) Dew Point ( °F °C ) Humidity (%) Winds ( mph kmh ) Pressure ( in mb ) Visibility ( mi km ) Precip ( " mm )
12:53 am 00:53 Clear 45 7.2 35 1.7 68 68 N 6 9 30.06 1018 10 16 0.00 0.00
1:53 am 01:53 Clear 44 6.7 35 1.7 71 71 N 7 11 30.06 1018 10 16 0.00 0.00
2:53 am 02:53 Clear 43 6.1 35 1.7 74 74 N 7 11 30.07 1018 10 16 0.00 0.00
3:53 am 03:53 Clear 43 6.1 35 1.7 74 74 N 7 11 30.09 1019 10 16 0.00 0.00
4:53 am 04:53 Clear 43 6.1 35 1.7 74 74 N 8 13 30.10 1019 10 16 0.00 0.00
5:53 am 05:53 Clear 42 5.6 35 1.7 76 76 N 9 15 30.14 1021 10 16 0.00 0.00
6:53 am 06:53 Clear 41 5 36 2.2 82 82 N 9 15 30.19 1022 10 16 0.00 0.00
7:53 am 07:53 Sunny 45 7.2 37 2.8 74 74 NNE 9 15 30.24 1024 10 16 0.00 0.00
8:53 am 08:53 Sunny 51 10.6 41 5 69 69 NE 10 17 30.28 1026 10 16 0.00 0.00
9:53 am 09:53 Sunny 57 13.9 45 7.2 64 64 E 9 15 30.29 1026 10 16 0.00 0.00
10:53 am 10:53 Mostly Sunny 59 15 44 6.7 58 58 E 14 22 30.30 1026 10 16 0.00 0.00
11:53 am 11:53 Partly Cloudy 63 17.2 42 5.6 47 47 E 12 19 30.28 1026 10 16 0.00 0.00
12:53 pm 12:53 Sunny 65 18.3 39 3.9 39 39 ENE 17 28 30.25 1025 10 16 0.00 0.00
1:53 pm 13:53 Sunny 66 18.9 40 4.4 39 39 ENE 14 22 30.22 1024 10 16 0.00 0.00
2:53 pm 14:53 Partly Cloudy 65 18.3 38 3.3 37 37 E 12 19 30.22 1023 10 16 0.00 0.00
3:53 pm 15:53 Cloudy 64 17.8 37 2.8 37 37 E 9 15 30.21 1023 10 16 0.00 0.00
4:53 pm 16:53 Cloudy 64 17.8 34 1.1 33 33 NE 14 22 30.22 1023 10 16 0.00 0.00
5:53 pm 17:53 Cloudy 61 16.1 34 1.1 36 36 ENE 10 17 30.23 1024 10 16 0.00 0.00
6:53 pm 18:53 Mostly Cloudy 58 14.4 35 1.7 42 42 ENE 7 11 30.25 1025 10 16 0.00 0.00
7:53 pm 19:53 Mostly Cloudy 57 13.9 36 2.2 45 45 ENE 8 13 30.27 1025 10 16 0.00 0.00
8:53 pm 20:53 Cloudy 56 13.3 35 1.7 46 46 ENE 8 13 30.27 1025 10 16 0.00 0.00
9:53 pm 21:53 Cloudy 54 12.2 34 1.1 47 47 ENE 9 15 30.27 1025 10 16 0.00 0.00
10:53 pm 22:53 Cloudy 53 11.7 33 0.6 47 47 E 8 13 30.28 1025 10 16 0.00 0.00
11:53 pm 23:53 Partly Cloudy 49 9.4 33 0.6 55 55 ENE 7 11 30.27 1025 10 16 0.00 0.00

Powered by AerisWeather